Burlington, WA
on Sunday, November 4, 2012

Sunday
Previous Day Next Day
Daily Summary
 ActualAverage (KBLI)Record (KBLI)
Temperature
Mean Temperature °F 46°F  
Max Temperature 64°F 53°F 69°F (1949)
Min Temperature 53°F 39°F 24°F (2002)
Degree Days
Heating Degree Days 6 19  
Month to date heating degree days 76  
Cooling Degree Days 0 0  
Month to date cooling degree days 0  
Year to date cooling degree days 42  
Growing Degree Days8 (Base °F )  
Moisture
Dew Point 58°F   
Average Humidity 96    
Maximum Humidity 100    
Minimum Humidity 82    
Precipitation
Precipitation 0.29 in 0.19 in 1.70 in (1954)
Month to date precipitation 0.74  
Year to date precipitation 26.55  
Wind
Wind Speed 7 mph   
Max Wind Speed 21 mph   
Max Gust Speed 29 mph   
Visibility 8 miles   
Events     

Key: T is trace of precipitation, MM is missing value
Source: NWS Daily Summary
Time(PST)TemperatureDew PointHumidity Pressure Visibility Wind DirectionWind SpeedGust SpeedPrecipitationEvents Conditions
12:15 AM 53.6°F 53.6°F 100% 30.18 in 3.0 miles Calm Calm - 0.00 in   Overcast
12:35 AM 53.6°F 53.6°F 100% 30.18 in 4.0 miles SE 3.5 mph - 0.00 in   Overcast
12:55 AM 53.6°F 53.6°F 100% 30.18 in 3.0 miles ESE 4.6 mph - 0.02 in   Overcast
1:15 AM 53.6°F 53.6°F 100% 30.18 in 3.0 miles ENE 4.6 mph - 0.00 in   Overcast
1:35 AM 53.6°F 53.6°F 100% 30.18 in 9.0 miles ENE 4.6 mph - 0.00 in   Overcast
1:15 AM 55.4°F 55.4°F 100% 30.18 in 10.0 miles East 4.6 mph - 0.00 in   Overcast
1:35 AM 53.6°F 53.6°F 100% 30.20 in 9.0 miles Calm Calm - 0.00 in   Overcast
1:55 AM 53.6°F 53.6°F 100% 30.20 in 5.0 miles East 4.6 mph - 0.00 in   Overcast
2:15 AM 53.6°F 53.6°F 100% 30.20 in 4.0 miles East 4.6 mph - 0.00 in   Overcast
2:35 AM 55.4°F 55.4°F 100% 30.20 in 8.0 miles East 6.9 mph - 0.00 in   Overcast
2:55 AM 53.6°F 53.6°F 100% 30.20 in 6.0 miles East 6.9 mph - 0.00 in   Overcast
3:15 AM 53.6°F 53.6°F 100% 30.20 in 5.0 miles East 8.1 mph - 0.00 in   Overcast
3:35 AM 53.6°F 53.6°F 100% 30.19 in 3.0 miles East 6.9 mph - 0.00 in   Overcast
3:55 AM 53.6°F 53.6°F 100% 30.19 in 6.0 miles East 6.9 mph - 0.01 in   Overcast
4:15 AM 53.6°F 53.6°F 100% 30.19 in 8.0 miles East 6.9 mph - 0.00 in   Overcast
4:35 AM 55.4°F 55.4°F 100% 30.20 in 10.0 miles East 8.1 mph - 0.00 in   Overcast
4:55 AM 53.6°F 53.6°F 100% 30.19 in 10.0 miles East 8.1 mph - 0.00 in   Overcast
5:15 AM 55.4°F 55.4°F 100% 30.19 in 10.0 miles East 5.8 mph - 0.00 in   Overcast
5:35 AM 55.4°F 55.4°F 100% 30.20 in 10.0 miles East 5.8 mph - 0.00 in   Overcast
5:55 AM 55.4°F 55.4°F 100% 30.19 in 10.0 miles ENE 5.8 mph - 0.00 in   Overcast
6:15 AM 55.4°F 55.4°F 100% 30.18 in 10.0 miles East 5.8 mph - 0.00 in   Overcast
6:35 AM 55.4°F 55.4°F 100% 30.17 in 10.0 miles East 4.6 mph - 0.00 in   Overcast
7:15 AM 57.2°F 57.2°F 100% 30.18 in 10.0 miles ESE 9.2 mph - 0.00 in   Overcast
7:35 AM 57.2°F 57.2°F 100% 30.18 in 10.0 miles ESE 9.2 mph - 0.00 in   Overcast
7:55 AM 57.2°F 57.2°F 100% 30.19 in 10.0 miles ESE 11.5 mph - 0.00 in   Overcast
8:15 AM 59.0°F 57.2°F 94% 30.19 in 10.0 miles ESE 9.2 mph - 0.00 in   Overcast
8:35 AM 59.0°F 57.2°F 94% 30.19 in 9.0 miles ESE 8.1 mph - 0.00 in   Overcast
8:55 AM 59.0°F 57.2°F 94% 30.19 in 9.0 miles SE 9.2 mph - 0.00 in   Overcast
9:15 AM 60.8°F 57.2°F 88% 30.19 in 10.0 miles SE 11.5 mph 16.1 mph 0.00 in   Overcast
9:35 AM 60.8°F 57.2°F 88% 30.19 in 9.0 miles ESE 11.5 mph 16.1 mph 0.00 in   Overcast
9:55 AM 60.8°F 57.2°F 88% 30.19 in 9.0 miles ESE 11.5 mph - 0.00 in   Overcast
10:15 AM 60.8°F 57.2°F 88% 30.19 in 9.0 miles ESE 10.4 mph - 0.00 in   Overcast
10:35 AM 62.6°F 57.2°F 82% 30.20 in 10.0 miles SSE 11.5 mph 17.3 mph 0.00 in   Overcast
10:55 AM 62.6°F 57.2°F 82% 30.20 in 10.0 miles SE 10.4 mph - 0.00 in   Overcast
11:15 AM 62.6°F 57.2°F 82% 30.19 in 9.0 miles SE 12.7 mph 21.9 mph 0.00 in   Overcast
11:35 AM 62.6°F 59.0°F 88% 30.18 in 10.0 miles SSE 16.1 mph 19.6 mph 0.00 in   Overcast
11:55 AM 62.6°F 59.0°F 88% 30.19 in 10.0 miles SSE 13.8 mph 19.6 mph 0.00 in   Overcast
12:15 PM 62.6°F 59.0°F 88% 30.18 in 9.0 miles SE 17.3 mph 23.0 mph 0.00 in   Overcast
12:35 PM 62.6°F 60.8°F 94% 30.18 in 9.0 miles SE 13.8 mph 21.9 mph 0.00 in   Overcast
12:55 PM 62.6°F 60.8°F 94% 30.18 in 9.0 miles SE 11.5 mph 20.7 mph 0.00 in   Overcast
1:15 PM 62.6°F 60.8°F 94% 30.18 in 9.0 miles SE 13.8 mph 21.9 mph 0.00 in   Overcast
1:35 PM 62.6°F 60.8°F 94% 30.17 in 10.0 miles SE 15.0 mph 23.0 mph 0.00 in   Overcast
1:55 PM 62.6°F 60.8°F 94% 30.17 in 9.0 miles SE 15.0 mph 20.7 mph 0.00 in   Overcast
2:15 PM 62.6°F 60.8°F 94% 30.17 in 9.0 miles ESE 15.0 mph 24.2 mph 0.00 in   Overcast
2:35 PM 64.4°F 60.8°F 88% 30.16 in 9.0 miles SE 13.8 mph 19.6 mph 0.00 in   Overcast
2:55 PM 64.4°F 60.8°F 88% 30.16 in 8.0 miles SE 13.8 mph 25.3 mph 0.00 in   Overcast
3:15 PM 64.4°F 60.8°F 88% 30.16 in 10.0 miles SE 17.3 mph 28.8 mph 0.00 in   Overcast
3:35 PM 64.4°F 60.8°F 88% 30.14 in 9.0 miles SE 20.7 mph 24.2 mph 0.00 in   Overcast
4:15 PM 64.4°F 60.8°F 88% 30.16 in 9.0 miles SSE 16.1 mph 25.3 mph 0.00 in   Overcast
4:35 PM 64.4°F 60.8°F 88% 30.18 in 9.0 miles SSE 13.8 mph 21.9 mph 0.00 in   Overcast
4:55 PM 62.6°F 60.8°F 94% 30.20 in 10.0 miles South 12.7 mph 18.4 mph 0.00 in   Overcast
5:15 PM 62.6°F 60.8°F 94% 30.18 in 10.0 miles SSE 10.4 mph 20.7 mph 0.00 in   Overcast
5:35 PM 62.6°F 60.8°F 94% 30.18 in 10.0 miles SSE 13.8 mph 23.0 mph 0.00 in   Overcast
5:55 PM 62.6°F 60.8°F 94% 30.17 in 10.0 miles South 13.8 mph 21.9 mph 0.00 in   Overcast
6:15 PM 62.6°F 60.8°F 94% 30.21 in 5.0 miles South 10.4 mph 17.3 mph 0.01 in   Overcast
6:35 PM 62.6°F 62.6°F 100% 30.22 in 4.0 miles South 9.2 mph - 0.06 in   Overcast
6:55 PM 62.6°F 62.6°F 100% 30.21 in 5.0 miles South 9.2 mph - 0.09 in   Overcast
7:15 PM 60.8°F 60.8°F 100% 30.20 in 6.0 miles SSE 10.4 mph 16.1 mph 0.01 in   Overcast
7:35 PM 62.6°F 62.6°F 100% 30.22 in 7.0 miles South 8.1 mph 16.1 mph 0.02 in   Overcast
7:55 PM 60.8°F 60.8°F 100% 30.22 in 3.0 miles South 5.8 mph - 0.05 in   Overcast
8:15 PM 60.8°F 60.8°F 100% 30.22 in 5.0 miles SSW 6.9 mph - 0.01 in   Overcast
8:35 PM 60.8°F 60.8°F 100% 30.22 in 3.0 miles SW 4.6 mph - 0.01 in   Overcast
8:55 PM 60.8°F 60.8°F 100% 30.22 in 2.0 miles South 4.6 mph - 0.06 in   Overcast
9:55 PM 57.2°F 57.2°F 100% 30.25 in 1.8 miles WNW 6.9 mph - 0.05 in   Overcast
10:15 PM 57.2°F 57.2°F 100% 30.24 in 5.0 miles SW 5.8 mph - 0.01 in   Overcast
10:35 PM 57.2°F 57.2°F 100% 30.24 in 10.0 miles Calm Calm - 0.01 in   Overcast
10:55 PM 57.2°F 57.2°F 100% 30.28 in 10.0 miles Calm Calm - 0.01 in   Overcast
Moon Phase
Nov. 04 Nov. 06 Nov. 13 Nov. 20 Nov. 28
Sunrise:07:01 AM (PST) Moon Rise:09:24 PM (PST)11/4
Sunset:04:44 PM (PST) Moon Set:11:53 AM (PST)11/4

Copyright © 2014 The Weather Underground, Inc.